Flag for Canada Weather past 2 weeks in North Bay, Ontario, Canada

Now
55 °F

High level clouds.


Feels Like: 52 °F
Forecast: N/A
Wind: 14 mph from Southwest

Location: North Bay

Current Time: Sep 19, 2014 at 6:16:19 PM

Latest Report: Sep 19, 2014 at 5:00 PM


Visibility: 30 mi

Pressure: 30.18 "Hg

Humidity: 55%

Dew point: 39 °F

Location of North BayLocation

Historic Weather in North Bay — Graph

°F

North Bay temperature yesterday

Maximum temperature yesterday: 46 °F (at 3:00 PM)
Minimum temperature yesterday: 34 °F (at 2:00 AM)
Average temperature yesterday: 38 °F

Past Weeks' High & Low Weather Summary

 TemperatureHumidityPressure
High73 °F (Sep 4, 5:00 PM)100% (Sep 10, 2:00 AM)30.38 "Hg (Sep 10, 2:00 AM)
Low30 °F (Sep 19, 5:00 AM)44% (Sep 8, 5:00 PM)29.35 "Hg (Sep 11, 4:00 AM)
Average52 °F83%30.07 "Hg
* Reported Sep 4 5:00 PM — Sep 19 5:00 PM, North Bay, Weather by CustomWeather, © 2014

Note: Actual official high and low records may vary slightly from our data, if they occured in-between our weather recording intervals... More about our weather records

Advertising

North Bay weather history for previous 24 hours

 ConditionsComfort  
Time TempWeatherWind HumidityBarometerVisibility
5:00 PM
Sep 19
55 °FHigh level clouds.14 mph55%30.18 "Hg30 mi
4:00 PM55 °FHigh level clouds.13 mph55%30.22 "Hg30 mi
3:00 PM54 °FPartly sunny.14 mph54%30.23 "Hg30 mi
2:00 PM52 °FPartly sunny.16 mph58%30.25 "Hg30 mi
1:00 PM52 °FPartly sunny.13 mph50%30.29 "Hg30 mi
12:00 PM46 °FPartly sunny.8 mph57%30.34 "Hg15 mi
11:00 AM45 °FPartly sunny.10 mph61%30.34 "Hg15 mi
10:00 AM39 °FPartly sunny.9 mph70%30.36 "Hg15 mi
9:00 AM36 °FPartly sunny.9 mph81%30.38 "Hg15 mi
8:00 AM34 °FPassing clouds.5 mph87%30.37 "Hg15 mi
7:00 AM30 °FPassing clouds.9 mph93%30.35 "Hg15 mi
6:00 AM30 °FClear.8 mph93%30.35 "Hg9 mi
5:00 AM30 °FClear.7 mph93%30.34 "Hg9 mi
4:00 AM32 °FClear.7 mph87%30.34 "Hg9 mi
3:00 AM32 °FClear.7 mph87%30.34 "Hg9 mi
2:00 AM32 °FClear.6 mph87%30.34 "Hg9 mi
1:00 AM34 °FClear.5 mph81%30.33 "Hg9 mi
12:00 AM34 °FClear.6 mph81%30.32 "Hg9 mi
11:00 PM
Sep 18
34 °FClear.6 mph81%30.32 "Hg9 mi
10:00 PM36 °FClear.7 mph75%30.30 "Hg30 mi
9:00 PM36 °FClear.7 mph75%30.29 "Hg30 mi
8:00 PM37 °FPassing clouds.7 mph75%30.27 "Hg30 mi
7:00 PM43 °FScattered clouds.8 mph61%30.26 "Hg30 mi
6:00 PM46 °FScattered clouds.8 mph50%30.24 "Hg30 mi
Weather by CustomWeather, © 2014

See weather overviewHow to use our weather pages